Theta_e
316 313 313 313 312 313 314 314 313 314 315 315 314 314 316 317 316 315 318 333 341 341 340 341 343 345 347 344 342 341 337 336 337 340 341 340 340 343 344 345 344 343 343 344
314 315 315 315 315 314 314 314 314 314 314 313 316 316 316 317 318 318 322 335 343 344 347 346 347 348 347 346 344 341 337 339 339 336 340 341 342 344 347 346 347 347 346 346
316 317 317 317 317 318 316 316 316 316 317 317 317 315 316 316 321 324 332 334 338 340 342 342 345 346 346 344 342 340 340 338 339 338 342 342 343 347 345 342 345 348 348 348
316 316 318 316 318 317 318 317 317 318 317 317 317 318 315 316 321 324 324 331 339 339 338 339 340 342 343 344 340 348 348 338 344 345 345 343 342 343 344 348 346 347 347 350
317 317 316 317 319 320 319 319 318 319 317 316 316 315 315 324 325 324 325 336 340 345 345 344 346 346 347 347 350 353 351 350 351 349 347 349 349 348 345 346 348 347 347 349
316 317 317 319 318 319 318 318 316 314 313 317 316 315 314 326 325 324 324 333 334 338 339 337 337 342 344 345 345 346 347 351 352 352 350 347 345 347 349 348 344 348 347 345
316 317 317 317 318 317 315 316 318 319 318 319 319 318 325 325 322 322 323 324 330 332 332 331 329 330 335 338 338 340 341 339 340 341 341 340 341 342 341 341 342 342 343 344
317 317 316 316 318 318 317 317 317 322 322 321 319 325 328 323 321 320 321 320 322 327 330 330 329 327 327 325 327 331 333 330 330 329 329 330 332 332 334 336 336 338 338 341
315 316 315 316 316 317 317 318 318 319 320 322 320 327 326 325 322 320 320 319 318 317 317 321 321 327 327 325 326 326 324 323 323 322 322 322 322 320 319 320 322 325 330 334
315 314 315 315 316 317 319 318 320 316 319 321 322 322 327 329 323 320 319 319 318 315 315 315 315 317 319 320 320 320 320 320 320 320 320 319 318 319 320 321 321 319 317 319
313 313 312 312 314 317 317 320 319 316 320 325 322 322 326 326 324 320 319 317 317 317 317 315 314 314 315 316 316 317 317 317 317 317 317 317 317 317 317 317 319 322 321 319
311 310 311 313 313 318 318 320 318 315 316 320 320 320 321 324 323 321 320 320 322 319 319 319 319 319 314 316 316 315 315 314 312 310 312 314 314 314 315 316 317 321 322 321
310 308 310 311 309 310 316 319 319 315 315 319 323 319 321 321 323 322 319 318 318 320 320 319 319 317 318 316 317 314 314 313 310 310 309 309 310 311 312 313 316 317 318 321
310 307 310 312 312 311 314 315 318 316 316 316 318 319 318 321 320 321 320 318 317 319 318 319 317 315 315 312 313 313 314 312 311 310 309 308 309 309 309 310 314 316 317 318
307 310 310 310 312 315 315 314 315 318 317 318 317 317 317 318 319 321 321 320 319 320 320 319 314 313 312 312 312 312 312 311 311 311 311 311 311 311 310 310 311 314 315 316
308 311 314 315 314 314 313 312 312 313 314 315 316 316 315 316 319 321 319 320 320 319 319 319 314 312 312 312 312 311 311 309 308 307 307 307 308 310 311 311 311 311 313 314
308 308 308 310 312 312 310 312 313 314 315 315 311 312 313 317 320 320 319 318 318 313 314 312 312 312 311 311 311 310 308 308 307 307 305 305 305 306 307 309 311 311 311 312
306 306 306 309 309 311 308 311 314 314 314 313 312 312 312 311 312 315 316 313 312 312 312 312 311 311 311 310 309 308 307 307 307 306 307 307 307 307 308 307 308 309 310 311
307 305 307 307 309 309 312 314 312 311 314 312 312 311 311 311 312 311 312 312 312 312 312 312 311 311 309 308 308 307 307 307 306 306 307 307 308 308 308 308 308 309 308 308
306 306 310 306 309 310 309 312 313 310 311 313 312 312 312 312 310 309 311 311 311 310 310 310 309 309 309 309 308 308 307 306 306 307 308 308 308 308 308 308 308 309 309 309
309 307 309 303 306 308 309 313 314 313 310 313 312 312 311 310 310 311 311 311 310 310 309 309 309 309 309 309 308 307 307 306 306 306 306 307 307 306 308 308 308 309 309 309
310 308 307 306 310 313 312 313 314 309 312 312 311 311 311 311 311 310 310 310 309 309 309 308 308 307 307 307 307 307 307 306 306 306 306 306 307 308 309 308 308 308 309 309
309 309 309 307 307 308 312 314 314 314 312 311 311 311 311 310 310 309 309 309 309 308 308 308 307 307 307 306 305 306 306 305 305 307 306 307 308 308 308 308 308 308 308 308
307 311 308 309 309 311 312 312 313 313 313 312 311 311 311 310 309 308 308 307 306 306 305 305 304 304 305 306 306 305 305 305 305 305 307 308 308 308 308 307 307 307 306 307
306 306 307 307 308 309 310 312 312 312 311 311 311 311 311 309 307 307 306 306 306 305 305 305 305 305 304 304 304 304 305 306 306 308 308 308 307 306 306 306 306 306 307 307
306 304 302 304 308 307 309 312 313 312 311 311 310 308 307 306 306 305 304 304 304 303 303 303 304 303 304 304 304 305 305 307 308 308 307 306 306 306 305 306 306 305 304 304
Wind_Speed
5 5 3 7 5 5 3 3 5 12 15 3 10 6 13 19 10 11 11 20 24 25 26 31 35 36 39 42 43 32 31 31 27 26 28 26 25 19 21 24 19 23 25 20
6 3 8 4 5 5 5 5 9 8 11 4 9 10 7 5 6 7 18 27 30 29 27 26 31 36 37 36 36 32 33 29 26 24 27 27 22 23 22 22 19 20 17 18
4 8 4 2 6 3 3 4 5 7 11 3 4 7 6 5 19 17 3 17 30 30 31 29 30 32 34 35 30 29 30 28 25 23 23 31 24 23 20 26 27 23 22 22
4 4 3 7 4 1 2 5 7 6 3 6 2 9 5 8 5 14 16 8 7 14 29 27 23 22 24 24 25 28 27 29 25 23 21 26 29 24 24 21 21 20 23 24
5 5 7 6 5 4 3 9 6 5 5 3 2 1 5 7 7 13 16 16 14 15 19 21 24 22 18 14 15 22 23 22 20 18 19 16 19 19 21 18 17 17 18 21
4 4 5 4 3 3 8 7 5 5 2 4 6 3 4 4 6 7 13 20 19 24 22 24 25 23 21 17 13 14 18 14 14 12 12 14 13 14 16 17 21 21 20 19
6 3 4 7 5 8 12 8 5 5 4 5 6 3 2 6 5 6 7 19 18 26 24 23 23 24 22 19 19 18 18 20 16 13 10 8 5 5 10 15 13 17 17 20
3 6 5 6 4 4 5 4 4 5 2 5 5 4 3 7 6 9 11 23 28 26 19 25 25 26 28 29 24 18 18 20 17 16 14 11 7 7 2 8 12 15 19 17
3 4 5 5 3 1 4 2 1 1 2 3 3 2 3 6 4 8 17 27 24 29 26 23 25 25 24 25 23 21 20 20 18 16 15 15 14 11 11 9 8 7 8 10
4 3 2 5 6 5 3 2 1 3 1 4 4 4 4 10 7 5 14 20 17 33 29 25 28 24 19 21 19 13 15 15 14 11 10 11 11 11 10 10 11 12 12 12
3 3 5 3 4 4 4 3 5 3 2 2 2 4 6 7 9 7 15 20 22 27 19 17 24 24 14 17 10 12 11 10 10 11 12 13 15 16 17 16 14 12 13 17
1 4 1 2 5 3 3 2 3 4 3 2 2 6 3 4 5 14 7 17 17 15 5 11 12 10 9 3 10 12 7 11 16 17 17 17 17 18 18 15 13 13 14 14
4 2 3 6 5 4 2 3 3 3 2 6 2 4 5 6 9 8 10 16 17 23 22 5 5 1 7 5 14 5 8 15 18 20 19 20 21 20 18 17 16 16 16 14
3 3 7 6 6 3 5 4 6 6 4 4 6 6 7 5 6 14 22 20 21 12 16 7 12 12 8 7 6 5 12 13 16 19 20 20 20 20 20 20 18 17 18 15
4 4 4 5 6 6 8 8 7 9 11 8 12 10 11 11 15 23 25 23 22 17 19 16 16 13 11 8 4 3 9 14 17 18 19 20 20 20 19 20 20 18 16 16
2 2 2 4 7 7 8 12 12 13 12 10 14 15 16 12 21 19 23 21 19 20 20 20 19 16 8 3 5 8 11 16 20 22 21 20 20 21 18 19 20 20 19 16
4 5 2 4 3 6 7 3 5 1 2 3 4 5 2 3 12 21 18 16 17 18 18 17 13 9 4 5 10 14 16 16 18 19 20 19 17 18 20 21 20 19 20 20
6 5 3 3 3 1 7 7 5 7 2 5 4 3 6 9 13 13 18 22 21 18 15 9 4 6 8 12 17 17 17 17 19 21 15 13 15 15 16 17 19 22 23 21
9 5 2 2 2 6 7 3 2 2 2 4 4 7 15 21 23 14 19 16 13 9 7 6 7 12 15 17 17 18 19 21 23 20 15 15 15 15 16 17 17 17 19 25
6 4 4 3 3 4 6 5 7 3 3 2 9 7 10 4 4 3 10 9 10 7 5 6 9 11 14 14 15 16 18 21 23 18 17 17 17 18 18 18 19 19 19 18
3 2 6 2 4 6 5 12 11 4 7 10 9 10 4 2 4 11 10 9 6 5 7 7 8 11 10 10 13 18 19 22 20 20 20 20 21 20 18 20 19 20 19 18
4 4 3 2 1 7 5 5 3 4 6 12 11 9 10 12 11 8 5 4 5 5 6 8 10 9 9 12 14 16 17 18 20 23 24 24 22 19 19 21 20 21 20 20
2 5 4 7 5 5 1 4 4 2 5 10 13 12 9 7 5 2 4 8 11 10 10 9 9 10 12 14 16 21 19 20 22 21 24 23 20 19 18 18 18 19 20 21
3 1 2 2 3 4 8 10 9 10 11 11 10 6 4 3 3 5 6 6 7 9 11 14 14 16 17 15 16 19 22 22 23 24 21 16 16 14 14 15 17 19 20 19
4 4 1 4 9 11 12 13 12 11 13 9 6 6 6 7 6 6 7 9 9 10 12 13 15 15 16 15 15 19 21 20 19 16 14 13 14 16 19 20 20 20 20 20
10 7 4 5 11 9 14 10 16 14 15 12 13 9 4 3 7 10 11 11 13 14 15 15 16 17 19 18 17 17 16 15 14 14 16 17 19 20 22 25 27 26 26 24
Wind_Direction
25 58 281 256 201 208 247 238 257 278 282 260 274 277 288 315 306 241 197 184 183 181 188 194 200 208 211 203 208 220 219 215 220 229 227 226 229 233 241 236 241 254 231 235
13 307 260 241 237 229 231 262 280 284 275 152 287 288 285 302 311 278 184 176 176 167 171 182 195 204 207 213 222 224 217 218 228 235 233 231 236 237 242 245 253 259 251 250
154 248 347 296 307 297 268 217 265 253 305 254 267 303 329 346 36 35 66 166 170 170 167 176 183 192 200 202 204 212 221 230 228 235 234 230 226 222 237 259 258 262 262 259
218 289 13 332 314 4 299 296 265 266 347 291 121 286 307 350 353 12 2 14 120 151 160 163 165 174 190 201 202 207 216 223 224 227 222 229 237 241 249 260 257 263 257 258
264 304 348 38 331 325 270 315 285 261 246 302 66 60 253 353 333 354 336 78 98 111 121 126 137 138 144 149 182 200 208 209 211 213 216 214 225 243 251 260 263 266 271 268
269 30 48 345 324 93 307 341 8 25 92 269 337 195 270 345 331 331 346 68 85 116 119 111 111 118 120 123 152 187 198 183 187 185 201 213 223 249 260 263 267 267 268 271
342 3 330 27 24 354 6 34 348 327 352 247 334 16 292 352 353 347 343 57 81 98 98 95 92 95 99 103 101 102 101 96 94 98 107 108 200 236 269 284 288 292 294 277
56 327 29 354 63 280 284 134 165 276 273 274 341 320 342 89 69 59 63 73 78 87 100 103 95 91 90 91 90 93 95 90 89 81 78 82 91 63 13 288 281 281 287 290
61 280 337 53 337 332 308 49 205 144 313 348 237 139 201 160 118 86 75 72 69 78 73 83 93 101 97 94 92 93 90 87 86 80 75 68 67 66 60 45 18 352 324 299
195 304 26 301 6 26 56 116 15 14 313 288 304 286 295 181 161 136 76 73 69 89 79 84 87 88 92 92 93 94 76 70 64 51 40 24 17 16 17 12 4 355 339 331
126 123 292 22 0 310 350 21 54 98 161 231 293 272 6 290 171 191 119 99 83 78 79 85 85 75 76 70 84 77 75 54 41 23 6 351 345 344 338 333 332 335 337 335
54 137 107 252 299 11 94 134 127 122 249 256 290 261 160 101 191 253 184 155 166 133 9 95 13 26 64 91 334 354 6 8 358 349 334 325 320 318 317 323 332 318 316 333
180 30 27 351 345 356 10 202 167 103 67 223 226 264 191 153 135 233 224 204 203 172 184 240 247 137 189 247 274 297 346 351 344 341 341 327 314 308 309 310 308 315 319 316
115 150 161 199 215 179 286 238 215 171 177 209 223 281 284 193 187 185 211 209 198 189 197 231 169 162 170 184 200 283 321 324 327 333 333 325 318 316 308 297 299 302 303 309
96 202 190 241 239 241 251 272 249 200 231 219 253 229 253 223 198 207 203 201 203 212 204 209 187 181 180 195 224 321 317 324 329 322 319 313 311 308 309 309 295 291 297 299
32 258 193 260 256 260 272 275 265 265 243 241 248 258 250 266 206 183 192 197 193 197 208 205 190 181 188 238 315 331 320 322 322 323 320 311 299 292 296 299 304 303 292 298
173 158 105 265 272 312 293 232 259 169 35 291 248 268 135 102 155 172 174 175 184 169 160 165 175 187 221 300 321 329 336 340 334 331 325 321 316 304 297 289 294 301 299 291
151 133 138 246 355 264 245 311 144 108 355 332 7 62 77 103 120 145 169 150 147 146 153 169 228 280 308 324 323 322 328 333 335 334 319 322 330 328 330 318 298 292 288 292
169 132 153 152 191 294 313 126 307 305 320 2 94 101 96 103 110 100 137 146 148 158 184 207 257 283 303 312 316 313 320 326 323 318 313 311 317 314 316 314 315 316 305 287
99 88 142 134 166 231 242 278 348 110 304 243 148 155 151 109 95 224 150 158 165 170 206 253 271 281 295 300 297 305 315 319 327 315 310 305 307 311 308 308 311 313 312 300
92 63 199 142 214 285 261 313 320 193 240 179 162 156 161 129 177 153 168 174 194 238 267 249 260 284 290 277 289 299 306 306 308 307 307 307 305 300 299 306 307 307 310 306
183 163 200 113 166 267 357 343 227 236 168 165 163 155 142 138 141 155 184 232 273 286 289 285 289 293 287 280 287 296 293 307 309 299 298 302 303 298 295 299 301 301 302 305
273 187 192 179 216 219 287 219 291 234 205 176 161 150 150 158 167 207 270 293 299 295 291 290 297 287 286 289 296 301 300 307 302 302 306 304 304 301 298 297 299 299 297 304
298 164 245 70 280 247 253 254 238 231 220 190 171 160 186 227 247 277 302 293 292 295 297 300 303 306 298 290 292 295 300 301 295 295 299 297 296 293 289 289 292 296 299 303
218 344 251 270 289 306 258 253 236 207 178 153 229 244 243 244 278 313 306 302 302 304 306 307 306 307 311 305 307 305 296 297 291 288 289 287 287 293 298 298 297 298 296 295
216 217 176 230 272 269 271 282 235 198 190 197 186 181 201 300 330 321 312 309 310 312 314 308 304 309 307 308 312 304 313 301 297 288 289 293 293 293 297 298 297 292 294 291